Location: North Evanston
(42.0634°N, 87.6976°W)
Time: 10:56:54
(UTC+00:00)

Injun/Solrad 3 - Pass Details

Date: 13 May 2026
Orbit: 867 x 989 km, 66.8° (Epoch: 11 June)

Event Time Altitude Azimuth Distance (km) Brightness Sun altitude
Rises 05:09:24 0° 336° (NNW) 3,670 12.1 -28.9°
Reaches altitude 10° 05:12:33 10° 350° (N) 2,735 11.3 -29.0°
Maximum altitude 05:17:34 23° 42° (NE) 1,949 9.9 -29.2°
Enters shadow 05:22:09 12° 91° (E) 2,632 10.2 -29.3°
Drops below altitude 10° 05:22:35 10° 93° (E) 2,748 - -29.3°
Sets 05:25:45 0° 108° (ESE) 3,691 - -29.3°
